Temp
61 59 60 59 60 61 60 61 61 62 63 64 64 65 65 65 65 64 65 65 65 65 65 64 63 64 63 63 62 62 62 62 62 62 60 61 61 58 60 59 58 59 59 58 58 58 57 57 59 60 59 59 59 59 60 60 60 59 58 59 62 60 61
61 60 61 60 59 60 60 60 61 61 61 61 62 63 64 64 64 64 65 65 64 64 65 63 62 62 61 61 60 60 60 60 60 60 60 59 59 58 59 57 58 58 57 57 57 59 56 57 58 56 56 57 57 58 59 60 60 60 60 60 61 60 60
61 60 60 59 58 60 59 59 60 60 61 61 62 64 65 65 64 64 64 63 63 63 63 62 61 60 60 60 59 59 59 58 59 58 57 57 57 57 58 58 58 58 58 57 56 57 57 56 55 56 56 55 55 56 58 58 59 61 61 60 60 61 61
60 59 58 58 58 59 59 58 59 59 61 62 63 63 63 64 64 64 63 63 63 62 62 62 61 61 60 59 59 58 58 57 57 56 56 56 56 56 56 57 56 56 55 54 54 55 55 54 56 55 56 56 55 56 57 59 60 62 62 61 61 60 61
60 59 58 57 59 59 58 57 58 59 60 60 61 62 62 63 63 62 62 62 62 62 61 61 60 60 60 59 58 58 57 56 57 56 56 55 55 55 55 56 55 55 55 55 55 55 55 54 55 55 55 56 59 59 59 58 61 60 61 61 62 61 62
60 60 58 58 60 59 58 57 58 58 60 60 60 60 61 61 62 62 62 61 61 60 60 60 59 59 58 58 57 56 56 56 55 55 55 54 54 55 54 55 56 56 55 55 56 55 55 56 55 54 56 56 54 57 59 59 58 62 62 62 63 63 63
60 60 60 60 60 60 60 60 60 59 59 58 59 60 61 62 62 62 61 61 61 60 60 59 58 58 58 57 56 56 55 56 56 55 54 54 54 54 56 55 55 55 55 55 55 55 54 54 53 52 53 56 55 56 58 60 60 59 60 63 63 63 62
59 59 61 61 60 59 60 59 59 58 58 59 60 60 61 61 61 61 61 60 59 59 59 58 58 57 57 57 57 56 56 56 55 55 54 54 53 53 53 55 54 55 55 55 55 55 55 54 53 52 52 51 54 56 55 59 60 58 56 61 63 62 62
60 60 60 60 60 59 58 58 57 57 58 58 58 59 60 61 60 59 59 59 59 59 58 58 58 57 57 56 56 56 55 56 54 54 54 54 53 53 53 54 54 54 54 55 55 55 55 55 54 54 53 52 50 50 53 54 56 57 61 57 61 63 62
60 60 59 58 58 58 58 57 57 57 57 58 57 59 59 60 60 59 59 58 58 58 58 58 57 57 57 57 56 55 55 56 55 54 54 54 54 54 54 53 54 54 54 55 55 55 55 55 55 55 54 52 52 49 48 49 52 52 57 59 55 60 62
60 59 59 58 58 57 57 57 57 57 57 57 58 59 60 60 59 59 59 58 58 58 58 58 58 57 57 56 56 56 56 55 55 55 55 55 54 54 54 54 54 54 54 54 54 54 55 55 55 55 55 55 54 50 49 47 49 54 53 57 58 57 60
59 58 58 57 57 57 56 56 57 56 57 58 60 60 60 59 59 58 59 58 58 57 58 57 57 57 57 56 56 55 55 56 55 54 54 54 54 55 54 53 54 54 54 54 55 55 55 56 56 57 56 56 54 53 51 50 48 55 56 53 56 59 59
59 59 59 58 57 57 57 57 57 56 57 59 60 60 60 59 59 59 59 58 58 58 58 57 58 57 57 56 56 56 55 55 55 54 54 55 54 54 54 53 54 54 55 56 55 55 56 56 56 56 56 56 55 54 53 51 49 49 56 55 55 58 60
58 59 58 58 56 55 56 57 56 56 57 58 60 60 59 60 60 59 59 59 59 58 57 56 57 57 56 55 56 56 56 56 55 55 55 54 55 55 55 54 54 54 56 55 55 56 56 57 57 57 57 56 56 55 53 51 49 50 54 57 56 56 58
58 57 56 55 55 56 57 56 56 57 56 58 60 60 60 59 60 59 60 59 59 59 58 58 57 57 56 55 54 55 55 56 55 55 54 54 54 54 54 55 55 55 56 55 55 57 57 57 58 57 57 56 56 54 55 51 50 50 49 54 55 57 57
56 55 55 55 56 56 55 55 56 55 56 57 59 60 59 59 59 60 59 58 59 58 58 58 57 57 56 56 55 55 55 56 55 54 54 55 55 56 55 55 55 55 56 55 55 56 56 56 58 57 56 57 55 54 55 54 51 49 49 51 55 55 56
55 54 54 54 53 54 55 54 55 55 57 58 58 58 59 59 59 59 58 58 58 58 58 57 57 58 57 57 56 56 56 56 56 55 55 56 56 56 56 55 55 56 56 55 55 56 56 56 56 56 55 56 55 54 54 54 53 51 51 49 53 54 56
53 53 53 53 52 53 53 53 54 56 57 57 57 57 58 59 59 59 57 58 58 58 58 58 57 57 57 57 57 56 56 56 55 56 55 55 55 56 56 55 55 56 56 55 55 55 56 55 57 56 54 56 55 55 54 54 53 53 51 50 51 54 56
53 53 52 52 52 53 53 53 54 56 58 57 57 57 57 58 59 59 59 59 59 59 59 58 58 58 58 57 56 56 56 56 56 56 56 56 56 56 56 56 55 56 56 54 54 55 55 55 55 55 54 54 55 54 53 54 54 53 52 52 52 52 55
53 52 52 52 53 53 53 54 56 57 57 57 57 57 57 57 58 59 59 59 59 58 58 58 58 58 58 58 57 56 55 55 55 55 56 56 57 56 57 56 56 56 55 55 54 54 54 54 54 54 54 53 54 53 53 53 53 53 52 52 53 53 53
53 53 52 53 53 52 53 55 56 56 57 56 56 57 57 57 57 58 58 59 59 58 58 58 58 58 58 57 57 56 56 55 55 55 55 56 56 57 57 57 57 57 56 55 54 54 53 53 54 54 54 54 53 53 52 53 53 53 52 52 52 52 53
53 53 53 53 53 53 54 55 55 56 56 56 55 57 57 57 56 57 58 57 58 58 57 56 57 57 57 57 57 56 56 56 56 55 56 56 56 57 57 57 56 56 54 50 47 47 46 47 52 53 53 53 53 52 52 52 53 52 52 52 51 52 52
53 53 54 54 54 54 54 54 54 54 55 55 55 55 56 56 57 56 56 57 57 56 56 56 53 49 52 57 57 56 56 56 56 56 56 55 56 56 56 57 55 51 50 50 48 44 43 43 44 48 50 52 51 51 51 51 51 51 51 50 50 50 50
55 54 55 54 54 54 54 53 54 54 53 53 53 54 55 55 56 57 57 56 56 55 55 55 45 43 44 47 55 56 56 56 56 56 56 55 55 56 57 57 57 54 54 53 53 45 44 43 42 42 42 43 45 49 49 49 50 50 50 50 51 51 50
56 55 55 55 54 54 53 53 53 53 52 52 52 53 53 54 54 55 56 57 56 55 56 48 41 42 42 43 49 57 57 56 56 56 56 56 56 56 56 56 56 55 55 53 54 55 52 46 43 42 42 42 42 42 42 46 47 49 49 49 49 50 50
55 55 54 54 53 53 53 52 51 51 50 50 50 50 51 50 52 54 55 56 56 56 56 43 41 41 42 42 43 52 58 57 56 56 56 56 56 56 56 56 56 56 56 50 54 55 55 55 49 45 45 46 47 44 41 40 42 47 50 50 49 49 50
54 53 52 51 51 52 51 51 49 48 47 47 47 46 47 49 51 53 55 56 55 56 56 44 40 41 42 41 41 47 58 57 57 56 56 55 56 56 55 56 55 55 56 55 54 53 54 55 54 55 56 56 55 52 47 45 44 43 47 51 50 49 51
53 51 50 50 51 51 49 46 45 45 45 45 45 45 45 48 50 52 54 55 55 54 54 42 40 40 41 41 40 46 57 56 56 56 55 55 55 55 56 55 55 55 55 55 51 46 51 53 54 54 55 54 55 55 54 54 52 51 51 51 51 51 51
52 51 50 50 47 46 44 44 43 43 43 44 46 46 46 49 50 51 52 54 54 54 52 39 40 40 40 41 41 55 57 56 56 56 55 55 56 57 56 56 56 55 55 54 46 38 42 50 54 54 53 54 54 55 55 51 45 44 48 50 51 51 51
52 51 50 47 44 43 43 43 44 45 45 45 43 45 48 49 50 51 51 53 54 53 52 43 39 39 40 40 45 57 56 57 56 55 55 55 57 56 56 56 56 56 55 54 42 37 38 42 54 53 52 52 53 54 54 55 48 44 43 42 41 41 41
49 49 48 45 43 43 44 45 45 46 46 46 47 48 49 49 50 51 51 52 54 53 52 45 38 40 40 41 49 57 57 57 55 56 55 55 57 56 53 46 51 55 54 53 39 38 37 46 54 52 52 51 52 53 53 53 53 53 46 45 44 43 43
49 49 49 48 47 46 47 47 48 48 49 50 51 51 51 51 50 51 52 53 49 52 52 46 39 39 40 40 49 57 57 57 55 55 56 56 56 57 54 50 44 46 49 45 36 38 37 45 53 52 51 51 51 51 51 52 51 51 52 53 54 55 54
49 48 49 49 49 50 50 50 49 50 50 52 52 52 52 53 51 51 51 52 51 52 52 51 46 38 40 40 43 56 58 56 55 54 55 57 56 57 56 56 49 38 37 37 37 37 38 37 50 52 52 51 50 49 51 50 51 50 50 51 52 53 54
51 52 53 51 52 52 51 50 50 50 51 52 52 51 51 51 51 51 51 51 52 51 52 52 47 38 39 40 40 46 57 56 56 56 56 56 57 57 57 57 58 43 37 37 37 37 38 38 39 51 51 51 49 46 43 49 51 47 51 52 53 54 55
53 53 53 52 51 50 50 50 49 51 52 51 50 50 50 51 51 50 50 51 51 51 50 48 51 40 39 39 40 40 54 56 56 57 55 57 57 57 56 57 58 46 37 37 37 38 37 39 37 51 49 39 37 36 44 49 52 53 53 54 54 54 54
53 53 52 52 51 50 50 49 50 51 51 51 50 49 49 50 50 49 50 51 51 51 51 49 44 47 39 39 38 40 43 49 38 53 56 56 56 56 56 55 54 41 37 37 38 37 38 36 41 50 36 36 38 36 40 53 52 53 53 53 53 52 52
54 53 52 52 51 50 50 51 51 52 52 51 51 50 50 50 50 49 49 50 50 52 52 52 44 42 44 37 38 38 38 40 41 54 56 57 57 56 56 56 51 38 37 37 37 38 38 38 47 38 37 37 36 40 52 53 54 53 52 52 52 52 52
MSLP
1019.96 1020.64 1021.00 1021.24 1021.52 1021.88 1021.80 1022.00 1021.96 1021.84 1021.76 1021.76 1021.80 1021.84 1021.88 1021.88 1021.88 1021.92 1022.00 1022.12 1022.24 1022.40 1022.44 1022.64 1022.80 1022.84 1022.84 1022.88 1022.96 1023.04 1023.04 1023.04 1022.96 1022.92 1023.12 1023.12 1022.96 1023.60 1023.60 1023.52 1023.64 1023.80 1023.84 1023.92 1023.84 1023.32 1023.24 1022.92 1022.92 1023.68 1024.20 1024.36 1024.32 1024.44 1024.44 1024.40 1024.32 1024.28 1024.28 1024.04 1023.80 1023.68 1023.44
1020.16 1020.48 1020.88 1021.16 1021.48 1021.72 1021.92 1022.08 1022.04 1022.04 1022.08 1022.12 1022.12 1022.16 1022.16 1022.16 1022.20 1022.24 1022.28 1022.40 1022.52 1022.72 1022.80 1023.00 1023.16 1023.16 1023.24 1023.32 1023.44 1023.48 1023.56 1023.60 1023.64 1023.68 1023.56 1023.76 1023.68 1023.80 1023.64 1023.92 1023.96 1024.08 1024.24 1024.40 1024.28 1023.88 1023.60 1022.88 1022.88 1023.52 1023.92 1024.40 1024.52 1024.60 1024.60 1024.52 1024.40 1024.32 1024.24 1024.12 1023.92 1023.76 1023.56
1020.60 1020.84 1021.12 1021.44 1021.56 1021.60 1021.88 1022.08 1022.12 1022.16 1022.24 1022.32 1022.36 1022.32 1022.32 1022.36 1022.44 1022.48 1022.64 1022.84 1023.00 1023.12 1023.20 1023.36 1023.40 1023.52 1023.68 1023.84 1024.00 1024.04 1024.08 1024.12 1024.20 1024.24 1024.32 1024.40 1024.36 1024.40 1024.16 1024.04 1023.96 1024.04 1024.04 1024.16 1024.32 1024.08 1023.92 1023.80 1023.48 1023.68 1024.04 1024.08 1023.84 1024.40 1024.64 1024.52 1024.36 1024.24 1024.16 1024.08 1023.92 1023.80 1023.60
1020.64 1020.92 1021.20 1021.48 1021.52 1021.64 1021.84 1022.16 1022.28 1022.36 1022.36 1022.44 1022.48 1022.60 1022.64 1022.64 1022.72 1022.88 1023.04 1023.24 1023.36 1023.48 1023.52 1023.56 1023.68 1023.88 1024.12 1024.28 1024.40 1024.44 1024.52 1024.56 1024.72 1024.84 1024.88 1024.88 1024.76 1024.76 1024.68 1024.64 1024.80 1024.80 1024.80 1024.80 1024.80 1024.52 1024.36 1024.28 1023.68 1023.88 1024.00 1024.40 1024.36 1024.04 1024.44 1024.56 1024.32 1024.16 1024.08 1024.00 1023.88 1023.80 1023.64
1020.24 1020.68 1020.92 1021.20 1021.32 1021.52 1021.88 1022.28 1022.44 1022.48 1022.64 1022.72 1022.76 1022.80 1022.92 1022.96 1023.08 1023.24 1023.40 1023.52 1023.68 1023.72 1023.84 1023.96 1024.12 1024.28 1024.48 1024.60 1024.68 1024.80 1025.04 1025.12 1025.16 1025.12 1025.20 1025.24 1025.16 1025.16 1025.28 1025.28 1025.40 1025.44 1025.40 1025.32 1025.32 1025.16 1024.88 1024.96 1024.68 1024.48 1024.32 1024.32 1023.68 1023.96 1024.24 1024.40 1024.20 1024.20 1024.12 1023.96 1023.84 1023.76 1023.56
1020.24 1020.56 1020.76 1021.00 1021.08 1021.40 1021.88 1022.28 1022.44 1022.56 1022.64 1022.80 1022.96 1023.04 1023.24 1023.28 1023.32 1023.48 1023.64 1023.80 1024.00 1024.12 1024.28 1024.40 1024.60 1024.72 1024.76 1024.88 1025.12 1025.32 1025.44 1025.52 1025.56 1025.56 1025.56 1025.68 1025.64 1025.56 1025.68 1025.76 1025.72 1025.72 1025.80 1025.76 1025.64 1025.48 1025.40 1025.24 1025.04 1024.64 1024.52 1024.56 1024.40 1023.88 1024.00 1024.00 1024.00 1023.76 1023.92 1023.88 1023.76 1023.60 1023.44
1020.24 1020.64 1020.76 1020.80 1021.00 1021.28 1021.68 1022.04 1022.28 1022.48 1022.72 1022.92 1023.08 1023.24 1023.36 1023.44 1023.56 1023.72 1023.92 1024.12 1024.28 1024.48 1024.64 1024.80 1024.92 1025.00 1025.08 1025.24 1025.48 1025.64 1025.76 1025.88 1025.92 1025.96 1026.00 1026.12 1026.12 1026.08 1025.88 1025.88 1025.96 1026.00 1026.04 1026.04 1025.96 1025.80 1025.72 1025.52 1025.48 1025.56 1025.08 1024.28 1024.52 1024.12 1024.08 1023.76 1023.96 1023.84 1023.68 1023.68 1023.72 1023.60 1023.48
1020.44 1020.76 1020.88 1020.88 1020.92 1021.32 1021.76 1022.08 1022.44 1022.68 1022.84 1023.04 1023.16 1023.36 1023.52 1023.64 1023.80 1024.00 1024.20 1024.40 1024.64 1024.80 1024.96 1025.04 1025.16 1025.28 1025.40 1025.48 1025.68 1025.92 1026.00 1026.12 1026.24 1026.24 1026.36 1026.44 1026.48 1026.40 1026.28 1026.12 1026.20 1026.20 1026.28 1026.24 1026.16 1026.12 1026.12 1026.24 1026.24 1026.20 1025.68 1025.04 1024.00 1023.88 1024.16 1023.88 1023.64 1024.00 1024.32 1023.64 1023.60 1023.52 1023.40
1020.56 1020.80 1021.04 1021.12 1021.16 1021.48 1021.92 1022.24 1022.60 1022.80 1022.92 1023.08 1023.36 1023.52 1023.72 1023.80 1024.04 1024.28 1024.52 1024.72 1024.92 1025.08 1025.20 1025.28 1025.40 1025.52 1025.64 1025.72 1025.96 1026.16 1026.32 1026.40 1026.52 1026.56 1026.64 1026.68 1026.68 1026.60 1026.48 1026.40 1026.32 1026.52 1026.56 1026.52 1026.48 1026.56 1026.56 1026.56 1026.52 1026.44 1026.24 1026.12 1025.64 1024.68 1024.32 1023.96 1023.80 1023.76 1023.72 1023.92 1023.48 1023.40 1023.32
1020.68 1020.84 1021.12 1021.36 1021.52 1021.88 1022.20 1022.48 1022.72 1022.96 1023.08 1023.24 1023.48 1023.68 1023.88 1024.04 1024.20 1024.44 1024.72 1024.96 1025.16 1025.28 1025.44 1025.56 1025.68 1025.76 1025.84 1025.96 1026.20 1026.40 1026.52 1026.64 1026.64 1026.76 1026.80 1026.76 1026.76 1026.68 1026.68 1026.68 1026.60 1026.72 1026.80 1026.84 1026.84 1026.84 1026.84 1026.76 1026.72 1026.72 1026.68 1026.68 1026.48 1026.04 1025.76 1024.80 1024.36 1024.48 1023.56 1023.88 1023.84 1023.24 1023.24
1020.56 1020.96 1021.16 1021.32 1021.72 1022.08 1022.40 1022.64 1022.84 1023.04 1023.24 1023.36 1023.48 1023.76 1023.92 1024.16 1024.44 1024.68 1024.88 1025.16 1025.40 1025.52 1025.68 1025.76 1025.84 1025.96 1026.08 1026.28 1026.48 1026.56 1026.72 1026.80 1026.84 1026.88 1026.92 1026.88 1026.88 1026.84 1026.88 1026.84 1026.84 1026.96 1027.12 1027.04 1027.12 1027.08 1027.04 1027.00 1026.92 1026.84 1026.80 1026.76 1026.72 1026.68 1026.60 1026.20 1025.20 1024.72 1024.64 1024.12 1024.04 1023.72 1023.24
1020.64 1021.04 1021.32 1021.56 1021.84 1022.16 1022.52 1022.72 1022.92 1023.12 1023.32 1023.40 1023.52 1023.76 1024.00 1024.24 1024.56 1024.88 1025.08 1025.36 1025.56 1025.72 1025.84 1025.96 1026.08 1026.24 1026.36 1026.52 1026.68 1026.80 1026.92 1026.92 1026.96 1027.04 1027.08 1027.04 1027.08 1027.00 1027.08 1027.12 1027.12 1027.16 1027.20 1027.20 1027.16 1027.12 1027.12 1027.04 1026.92 1026.76 1026.76 1026.68 1026.80 1026.84 1026.76 1026.40 1025.80 1024.48 1024.84 1024.60 1024.24 1024.00 1023.56
1020.64 1021.00 1021.24 1021.56 1021.96 1022.28 1022.56 1022.76 1023.04 1023.24 1023.36 1023.40 1023.56 1023.80 1024.08 1024.40 1024.72 1025.00 1025.24 1025.48 1025.68 1025.80 1025.96 1026.16 1026.28 1026.44 1026.52 1026.68 1026.80 1026.92 1027.08 1027.08 1027.08 1027.12 1027.20 1027.20 1027.24 1027.24 1027.24 1027.28 1027.32 1027.24 1027.24 1027.12 1027.16 1027.20 1027.12 1027.12 1027.04 1026.80 1026.68 1026.56 1026.56 1026.76 1026.68 1026.44 1026.24 1025.32 1024.68 1024.72 1024.40 1023.88 1023.52
1020.76 1021.04 1021.36 1021.68 1022.04 1022.48 1022.72 1022.96 1023.16 1023.32 1023.40 1023.56 1023.64 1023.96 1024.24 1024.52 1024.80 1025.08 1025.28 1025.52 1025.68 1025.88 1026.12 1026.36 1026.48 1026.60 1026.68 1026.88 1027.00 1027.08 1027.12 1027.12 1027.12 1027.20 1027.28 1027.40 1027.36 1027.32 1027.32 1027.32 1027.40 1027.44 1027.36 1027.28 1027.24 1027.16 1027.12 1026.96 1026.80 1026.68 1026.64 1026.56 1026.44 1026.52 1026.68 1026.56 1026.20 1025.60 1024.68 1024.52 1024.20 1023.84 1023.40
1020.84 1021.20 1021.56 1022.04 1022.32 1022.60 1022.84 1023.12 1023.32 1023.40 1023.52 1023.72 1023.84 1024.08 1024.40 1024.76 1024.96 1025.16 1025.40 1025.60 1025.80 1026.00 1026.24 1026.44 1026.60 1026.72 1026.88 1027.04 1027.20 1027.24 1027.28 1027.20 1027.24 1027.32 1027.36 1027.44 1027.52 1027.48 1027.44 1027.36 1027.44 1027.52 1027.52 1027.48 1027.40 1027.16 1027.08 1026.92 1026.68 1026.56 1026.60 1026.60 1026.48 1026.48 1026.56 1026.56 1026.20 1025.80 1025.16 1024.32 1024.12 1023.76 1023.24
1021.16 1021.52 1021.84 1022.12 1022.36 1022.68 1023.08 1023.32 1023.48 1023.56 1023.60 1023.92 1024.16 1024.28 1024.60 1024.88 1025.08 1025.28 1025.48 1025.72 1025.96 1026.20 1026.36 1026.60 1026.76 1026.84 1027.04 1027.12 1027.20 1027.32 1027.32 1027.32 1027.36 1027.40 1027.40 1027.44 1027.44 1027.48 1027.48 1027.48 1027.48 1027.52 1027.48 1027.40 1027.36 1027.28 1027.20 1027.04 1026.84 1026.76 1026.72 1026.64 1026.64 1026.60 1026.44 1026.40 1026.28 1025.84 1025.40 1024.68 1024.08 1023.60 1023.24
1021.28 1021.60 1021.96 1022.32 1022.68 1022.96 1023.16 1023.44 1023.64 1023.68 1023.76 1024.04 1024.32 1024.64 1024.76 1024.96 1025.20 1025.40 1025.64 1025.88 1026.12 1026.28 1026.52 1026.72 1026.84 1026.92 1027.04 1027.16 1027.24 1027.32 1027.40 1027.44 1027.44 1027.44 1027.44 1027.44 1027.48 1027.44 1027.48 1027.52 1027.60 1027.56 1027.44 1027.36 1027.32 1027.20 1027.12 1027.08 1027.00 1026.88 1026.84 1026.68 1026.60 1026.56 1026.40 1026.20 1026.04 1025.88 1025.36 1024.84 1023.96 1023.72 1023.24
1021.56 1021.92 1022.24 1022.56 1022.88 1023.12 1023.40 1023.60 1023.72 1023.76 1023.92 1024.24 1024.48 1024.72 1024.96 1025.08 1025.28 1025.44 1025.72 1025.92 1026.16 1026.36 1026.56 1026.72 1026.88 1027.04 1027.20 1027.24 1027.32 1027.40 1027.44 1027.52 1027.56 1027.56 1027.60 1027.64 1027.64 1027.56 1027.60 1027.64 1027.68 1027.60 1027.52 1027.40 1027.36 1027.24 1027.20 1027.20 1027.04 1027.00 1027.00 1026.80 1026.60 1026.48 1026.28 1026.08 1025.88 1025.64 1025.32 1024.84 1024.20 1023.68 1023.28
1021.72 1022.04 1022.40 1022.72 1023.00 1023.24 1023.52 1023.68 1023.76 1023.84 1023.96 1024.24 1024.56 1024.72 1024.92 1025.12 1025.24 1025.48 1025.72 1025.92 1026.16 1026.40 1026.60 1026.80 1026.92 1027.08 1027.20 1027.32 1027.40 1027.52 1027.56 1027.60 1027.64 1027.68 1027.72 1027.72 1027.72 1027.72 1027.76 1027.76 1027.72 1027.68 1027.60 1027.56 1027.56 1027.48 1027.44 1027.32 1027.24 1027.08 1027.12 1026.96 1026.68 1026.48 1026.24 1025.96 1025.68 1025.44 1025.16 1024.72 1024.16 1023.56 1023.16
1021.76 1022.16 1022.48 1022.76 1023.04 1023.28 1023.52 1023.64 1023.64 1023.80 1024.00 1024.20 1024.48 1024.76 1024.96 1025.16 1025.36 1025.48 1025.76 1026.00 1026.24 1026.44 1026.68 1026.84 1027.00 1027.16 1027.24 1027.36 1027.44 1027.60 1027.68 1027.76 1027.80 1027.84 1027.84 1027.84 1027.84 1027.88 1027.84 1027.80 1027.76 1027.72 1027.68 1027.68 1027.68 1027.76 1027.68 1027.56 1027.44 1027.24 1027.20 1027.08 1026.72 1026.52 1026.20 1025.88 1025.60 1025.28 1024.96 1024.60 1024.12 1023.76 1023.28
1021.80 1022.20 1022.52 1022.80 1023.04 1023.32 1023.48 1023.56 1023.68 1023.88 1024.08 1024.32 1024.52 1024.72 1024.96 1025.24 1025.52 1025.64 1025.88 1026.08 1026.32 1026.56 1026.80 1026.96 1027.08 1027.20 1027.24 1027.40 1027.52 1027.64 1027.72 1027.80 1027.88 1027.96 1027.96 1027.96 1027.96 1027.92 1027.88 1027.80 1027.72 1027.76 1027.84 1027.92 1028.00 1028.00 1027.96 1027.80 1027.52 1027.24 1027.16 1027.04 1026.80 1026.56 1026.24 1025.88 1025.52 1025.16 1024.88 1024.60 1024.16 1023.72 1023.36
1022.00 1022.32 1022.60 1022.84 1023.12 1023.32 1023.44 1023.64 1023.84 1024.04 1024.28 1024.48 1024.72 1024.88 1025.08 1025.28 1025.60 1025.80 1026.04 1026.24 1026.48 1026.68 1026.84 1027.00 1027.08 1027.16 1027.28 1027.44 1027.56 1027.64 1027.72 1027.80 1027.84 1027.88 1027.92 1027.96 1027.96 1027.92 1027.84 1027.88 1027.92 1028.00 1028.20 1028.36 1028.56 1028.64 1028.64 1028.52 1027.92 1027.48 1027.32 1027.16 1026.92 1026.64 1026.36 1026.00 1025.56 1025.28 1024.96 1024.64 1024.24 1023.92 1023.44
1022.08 1022.36 1022.60 1022.84 1023.08 1023.32 1023.52 1023.80 1024.00 1024.20 1024.44 1024.68 1024.92 1025.12 1025.28 1025.44 1025.60 1025.80 1026.08 1026.36 1026.60 1026.80 1026.96 1027.12 1027.36 1027.48 1027.40 1027.40 1027.56 1027.72 1027.80 1027.84 1027.80 1027.84 1027.92 1027.96 1028.00 1027.92 1027.88 1027.88 1028.08 1028.28 1028.24 1028.28 1028.28 1028.40 1028.52 1028.56 1028.56 1028.28 1027.92 1027.52 1027.24 1026.92 1026.64 1026.28 1025.88 1025.56 1025.20 1024.80 1024.48 1024.08 1023.64
1022.04 1022.36 1022.60 1022.88 1023.20 1023.40 1023.68 1023.92 1024.12 1024.36 1024.64 1024.88 1025.12 1025.32 1025.44 1025.56 1025.68 1025.84 1026.04 1026.32 1026.64 1026.88 1027.04 1027.28 1027.68 1027.72 1027.76 1027.76 1027.64 1027.72 1027.80 1027.88 1027.88 1027.88 1027.92 1027.92 1027.88 1027.88 1027.84 1027.88 1027.92 1028.04 1028.00 1028.00 1028.00 1028.24 1028.20 1028.24 1028.24 1028.20 1028.16 1028.04 1027.88 1027.56 1027.12 1026.68 1026.32 1025.96 1025.56 1025.12 1024.72 1024.28 1024.04
1022.00 1022.40 1022.68 1022.96 1023.24 1023.52 1023.84 1024.04 1024.20 1024.44 1024.72 1025.00 1025.16 1025.32 1025.52 1025.64 1025.80 1025.96 1026.12 1026.32 1026.60 1026.84 1027.00 1027.48 1027.80 1027.92 1028.00 1027.96 1027.80 1027.68 1027.76 1027.84 1027.88 1027.88 1027.92 1027.88 1027.84 1027.84 1027.84 1027.80 1027.88 1028.00 1028.08 1028.24 1028.04 1027.84 1027.84 1027.88 1027.96 1027.92 1027.84 1027.64 1027.52 1027.52 1027.64 1027.40 1026.96 1026.28 1025.96 1025.48 1024.96 1024.60 1024.24
1021.92 1022.32 1022.64 1022.96 1023.36 1023.68 1023.92 1024.16 1024.40 1024.60 1024.80 1025.04 1025.28 1025.48 1025.68 1025.96 1026.04 1026.12 1026.20 1026.36 1026.56 1026.80 1026.96 1027.68 1027.84 1028.00 1028.08 1028.04 1028.00 1027.76 1027.64 1027.80 1027.80 1027.92 1027.96 1028.00 1027.96 1027.92 1027.84 1027.76 1027.76 1027.92 1028.04 1028.24 1027.96 1027.84 1027.68 1027.52 1027.52 1027.52 1027.36 1027.20 1027.08 1027.12 1027.08 1027.12 1027.12 1026.92 1026.32 1025.76 1025.40 1024.88 1024.52
1021.60 1022.08 1022.56 1023.00 1023.32 1023.64 1023.96 1024.36 1024.72 1024.92 1025.12 1025.36 1025.60 1025.84 1026.12 1026.20 1026.24 1026.20 1026.24 1026.36 1026.56 1026.76 1026.92 1027.60 1027.88 1028.00 1028.08 1028.08 1028.04 1027.84 1027.68 1027.80 1027.84 1027.96 1028.04 1028.12 1028.04 1027.96 1027.96 1027.88 1027.84 1027.84 1027.92 1028.00 1028.04 1028.04 1027.76 1027.56 1027.40 1027.16 1026.92 1026.80 1026.72 1026.68 1026.64 1026.64 1026.56 1026.48 1026.32 1025.96 1025.60 1025.28 1024.80
1021.80 1022.44 1022.84 1023.12 1023.40 1023.76 1024.36 1025.00 1025.32 1025.52 1025.44 1025.40 1025.72 1026.36 1026.32 1026.44 1026.36 1026.32 1026.36 1026.40 1026.56 1026.84 1027.00 1027.60 1027.88 1028.00 1028.00 1028.04 1028.04 1027.92 1027.72 1027.88 1027.88 1028.00 1028.12 1028.16 1028.12 1028.04 1028.00 1028.00 1027.96 1027.96 1028.00 1028.00 1028.40 1028.72 1028.08 1027.68 1027.48 1027.20 1026.96 1026.88 1026.72 1026.60 1026.48 1026.40 1026.36 1026.32 1026.12 1025.92 1025.68 1025.40 1025.04
1021.80 1022.40 1022.88 1023.24 1023.68 1024.16 1024.68 1025.12 1025.44 1025.84 1025.96 1025.92 1025.56 1025.68 1026.36 1026.28 1026.36 1026.44 1026.48 1026.48 1026.60 1026.88 1027.28 1027.76 1027.88 1028.04 1028.04 1028.00 1028.16 1027.80 1027.72 1027.80 1027.84 1027.88 1028.08 1028.12 1028.04 1028.00 1027.96 1027.96 1027.92 1027.92 1028.00 1027.96 1028.56 1028.76 1028.60 1028.08 1027.44 1027.20 1027.00 1026.84 1026.64 1026.44 1026.28 1026.40 1026.48 1026.48 1026.32 1026.04 1025.76 1025.48 1025.12
1021.72 1022.20 1022.68 1023.24 1023.68 1024.12 1024.56 1025.08 1025.32 1025.48 1025.80 1026.00 1026.12 1025.80 1025.92 1026.16 1026.28 1026.40 1026.56 1026.56 1026.60 1026.88 1027.24 1027.76 1027.96 1028.04 1028.00 1028.00 1028.04 1027.52 1027.64 1027.60 1027.72 1027.88 1027.96 1028.08 1027.96 1028.00 1028.04 1028.04 1028.00 1027.92 1027.96 1028.04 1028.68 1028.68 1028.48 1028.20 1027.48 1027.36 1027.16 1027.00 1026.68 1026.32 1026.12 1026.04 1026.04 1025.92 1025.80 1025.68 1025.52 1025.28 1025.00
1021.72 1022.24 1022.64 1023.16 1023.60 1023.84 1024.32 1024.84 1025.04 1025.20 1025.28 1025.60 1025.80 1025.68 1025.80 1026.12 1026.32 1026.36 1026.48 1026.60 1026.60 1026.76 1027.12 1027.68 1027.96 1028.00 1027.96 1027.92 1027.60 1027.40 1027.48 1027.44 1027.64 1027.76 1027.92 1028.04 1027.84 1027.92 1028.32 1028.64 1028.36 1028.08 1028.04 1028.20 1028.72 1028.64 1028.48 1028.12 1027.56 1027.56 1027.40 1027.16 1026.72 1026.40 1026.20 1026.12 1025.84 1025.56 1025.40 1025.20 1024.96 1024.72 1024.44
1021.44 1021.88 1022.28 1022.80 1023.20 1023.64 1024.08 1024.44 1024.76 1024.92 1024.92 1024.96 1025.16 1025.36 1025.64 1025.84 1026.16 1026.32 1026.48 1026.60 1026.88 1026.76 1027.04 1027.64 1027.96 1027.96 1028.04 1027.92 1027.68 1027.28 1027.28 1027.28 1027.56 1027.72 1027.68 1027.76 1027.76 1027.72 1028.12 1028.48 1028.72 1028.60 1028.52 1028.68 1028.76 1028.56 1028.48 1028.20 1027.68 1027.68 1027.68 1027.32 1027.04 1026.76 1026.76 1026.68 1026.36 1026.04 1025.56 1025.12 1024.68 1024.36 1023.96
1021.56 1021.92 1022.20 1022.60 1022.88 1023.16 1023.60 1024.08 1024.52 1024.68 1024.72 1024.68 1024.96 1025.20 1025.44 1025.56 1025.96 1026.28 1026.56 1026.72 1026.92 1026.88 1027.00 1027.24 1027.72 1027.92 1027.96 1027.92 1027.76 1027.28 1027.16 1027.24 1027.44 1027.68 1027.60 1027.36 1027.36 1027.56 1027.76 1027.96 1028.44 1028.72 1028.72 1028.64 1028.52 1028.48 1028.48 1028.60 1028.12 1027.80 1027.68 1027.40 1027.32 1027.12 1027.08 1026.96 1026.64 1026.48 1025.96 1025.44 1024.88 1024.44 1024.00
1021.24 1021.72 1021.96 1022.28 1022.56 1022.92 1023.32 1023.76 1024.08 1024.36 1024.56 1024.60 1024.84 1025.12 1025.40 1025.56 1025.88 1026.32 1026.56 1026.76 1026.88 1027.04 1027.00 1027.08 1027.60 1027.84 1027.88 1027.84 1027.84 1027.56 1027.16 1027.20 1027.24 1027.36 1027.36 1027.44 1027.24 1027.32 1027.36 1027.52 1027.68 1028.44 1028.60 1028.56 1028.44 1028.36 1028.44 1028.52 1028.48 1028.00 1027.88 1027.84 1027.96 1028.04 1028.04 1027.12 1026.44 1026.32 1025.80 1025.32 1024.80 1024.28 1023.80
1020.92 1021.32 1021.76 1022.12 1022.60 1023.00 1023.40 1023.80 1023.96 1024.04 1024.20 1024.48 1024.84 1025.12 1025.36 1025.60 1025.84 1026.24 1026.60 1026.80 1026.84 1026.96 1027.12 1027.24 1027.28 1027.88 1027.84 1027.80 1027.76 1027.72 1027.20 1027.24 1027.28 1027.20 1027.28 1027.20 1027.24 1027.28 1027.48 1027.56 1027.56 1028.28 1028.60 1028.56 1028.36 1028.32 1028.36 1028.40 1028.44 1028.04 1028.12 1028.52 1028.48 1028.32 1027.92 1027.16 1026.44 1025.96 1025.48 1025.00 1024.60 1024.20 1023.84
1020.80 1021.16 1021.60 1021.96 1022.36 1022.88 1023.44 1023.80 1023.88 1023.88 1024.08 1024.36 1024.64 1025.04 1025.32 1025.56 1025.84 1026.20 1026.52 1026.68 1026.76 1026.88 1027.00 1027.32 1027.48 1027.56 1027.84 1027.76 1027.76 1027.76 1027.64 1027.56 1027.84 1027.48 1027.04 1027.12 1027.24 1027.36 1027.56 1027.72 1027.92 1028.44 1028.52 1028.48 1028.36 1028.28 1028.28 1028.32 1028.08 1027.96 1028.40 1028.36 1028.28 1028.08 1027.64 1026.64 1026.36 1025.92 1025.44 1025.04 1024.72 1024.32 1024.04
1020.56 1020.92 1021.36 1021.84 1022.28 1022.72 1023.16 1023.44 1023.60 1023.64 1023.80 1024.00 1024.36 1024.76 1025.04 1025.36 1025.64 1025.96 1026.28 1026.44 1026.56 1026.68 1026.92 1027.04 1027.60 1027.68 1027.72 1027.80 1027.72 1027.76 1027.80 1027.88 1027.92 1027.44 1027.20 1027.08 1027.24 1027.44 1027.44 1027.60 1027.92 1028.40 1028.48 1028.44 1028.32 1028.24 1028.16 1028.24 1028.04 1028.12 1028.16 1028.16 1027.96 1027.64 1026.96 1026.44 1026.08 1025.84 1025.52 1025.04 1024.72 1024.44 1024.12
Wind_Speed
8 9 7 7 6 4 6 5 4 5 6 6 6 6 6 5 6 6 6 6 7 7 6 6 5 5 5 6 8 7 6 6 6 5 4 4 3 4 5 7 8 8 8 7 5 3 1 1 4 5 6 6 9 8 7 7 9 9 8 8 9 9 8
7 8 8 7 8 6 8 5 5 6 6 6 6 6 6 6 6 6 7 7 7 7 6 6 6 7 8 8 8 7 7 7 6 5 5 5 5 4 3 5 5 5 6 6 4 4 5 3 4 6 6 3 4 8 6 5 6 8 8 8 8 9 8
9 9 8 7 6 6 7 6 5 5 5 5 6 6 6 7 7 7 7 8 7 6 6 7 7 8 8 9 8 7 7 8 6 7 7 5 6 6 6 4 4 3 3 4 6 5 4 6 5 8 7 7 5 5 6 5 5 7 8 7 7 8 8
11 12 10 7 6 6 7 6 5 4 4 5 5 5 6 7 8 7 7 7 7 6 6 7 7 7 7 7 7 9 9 8 7 7 8 7 6 7 8 7 7 7 6 7 7 7 7 7 6 7 6 5 4 6 6 5 5 6 8 7 7 8 8
10 10 11 10 7 9 8 6 4 5 5 5 5 5 6 7 6 7 8 8 7 6 7 6 7 7 6 7 7 7 7 7 7 7 7 8 8 7 8 7 7 6 6 6 6 6 7 6 5 5 6 5 2 4 3 3 3 3 7 8 7 7 8
8 9 9 10 8 8 7 7 5 5 5 5 5 6 6 7 6 7 7 6 6 7 7 7 7 8 7 7 7 7 7 8 7 7 7 8 7 7 6 6 6 6 6 5 5 6 5 4 6 6 5 3 5 5 5 4 6 3 5 7 8 7 9
9 7 7 8 8 7 6 7 6 5 5 5 6 6 5 6 6 7 7 8 8 8 8 8 8 8 8 7 7 8 8 7 7 8 8 8 7 6 5 6 6 6 6 6 6 7 7 7 8 9 7 4 2 4 4 5 5 6 7 7 7 7 9
8 7 5 5 8 9 6 7 6 5 6 6 6 6 7 7 8 8 8 8 8 8 8 8 7 8 7 7 7 8 7 7 7 7 7 7 6 7 7 7 7 7 7 7 7 8 8 8 7 7 9 9 7 4 6 4 6 7 8 9 9 7 10
7 6 6 5 6 6 7 7 6 5 6 7 6 7 7 7 8 8 8 9 8 8 8 8 8 7 7 8 7 7 8 5 7 8 7 7 8 8 8 7 8 8 7 7 7 7 7 7 7 7 8 8 9 10 9 7 8 8 10 11 9 9 12
8 10 9 8 8 7 7 6 6 6 7 7 7 7 7 8 8 9 9 8 8 8 8 8 8 8 8 8 7 8 8 7 7 7 6 7 7 8 8 9 8 8 7 7 7 6 6 6 6 6 7 8 7 7 9 10 9 10 12 13 11 12 13
8 8 8 11 9 8 7 6 7 7 7 6 7 7 8 9 9 9 9 8 8 8 8 8 8 8 8 7 7 7 7 7 7 6 6 7 8 8 8 8 8 8 7 7 7 6 6 6 6 6 6 6 6 7 7 8 9 6 9 11 11 11 13
9 9 8 8 8 9 8 7 7 7 7 8 8 8 8 9 9 8 9 8 8 8 8 8 8 8 8 8 7 7 7 7 7 8 7 7 7 8 9 9 8 7 6 7 6 6 6 6 6 5 5 4 5 5 6 6 9 6 8 10 10 11 12
10 10 10 11 9 9 8 9 9 8 7 7 8 9 8 9 9 9 8 9 9 8 9 8 8 8 7 7 7 7 7 8 9 9 8 7 6 8 9 9 8 7 6 6 6 6 5 5 4 5 6 5 5 5 5 7 7 11 9 8 10 10 13
11 10 10 9 9 8 8 8 7 7 7 7 9 9 9 10 10 10 10 9 9 9 9 8 7 7 8 8 7 8 8 9 10 9 9 9 8 8 9 9 9 7 6 7 6 6 6 6 5 5 6 6 7 6 6 7 8 10 9 8 9 10 11
9 9 10 9 9 9 8 7 7 7 8 8 8 9 10 8 9 10 10 10 10 10 9 9 8 8 8 8 8 6 7 9 10 10 9 10 9 7 7 9 9 7 6 7 6 8 7 7 7 8 7 7 7 7 6 6 8 8 12 10 9 10 11
10 11 11 9 10 9 8 7 6 7 8 8 7 8 9 9 9 10 10 10 10 10 9 9 8 8 9 9 9 8 8 9 9 10 9 9 9 8 8 8 8 6 5 7 6 6 5 7 7 8 8 7 7 7 7 6 6 9 10 11 10 11 11
10 9 9 8 9 8 8 7 6 7 9 8 8 7 9 10 9 9 10 10 10 9 9 9 9 9 9 9 9 9 9 9 8 9 9 9 8 8 8 8 8 7 6 8 7 7 7 7 6 7 8 7 7 8 7 6 7 7 9 11 11 11 11
10 10 10 8 9 9 8 7 6 8 9 9 8 8 8 8 9 10 9 11 11 10 10 10 9 9 8 8 9 8 9 8 8 8 8 8 7 8 8 8 7 7 7 8 8 8 8 9 7 7 7 7 7 8 7 7 7 7 9 10 11 10 11
10 11 10 10 10 8 7 7 8 7 9 10 9 8 9 8 8 10 10 10 11 10 10 10 10 9 9 8 8 8 7 7 8 8 7 7 7 7 7 7 6 6 7 8 7 7 7 9 7 7 8 8 8 8 8 8 8 8 9 9 11 11 11
10 10 9 9 8 8 8 8 8 9 8 9 10 9 9 9 8 10 10 10 10 11 10 9 9 9 9 9 8 8 7 7 7 6 6 7 7 6 6 6 6 6 7 7 7 7 6 7 6 7 7 7 8 9 8 8 9 9 9 10 10 10 12
10 10 9 9 8 8 8 8 8 8 8 9 9 9 9 9 8 8 9 9 10 9 9 9 9 9 9 8 8 7 7 7 7 7 7 6 6 6 6 6 7 7 7 8 7 6 6 6 5 6 7 7 9 9 8 9 9 9 9 10 11 12 11
9 10 10 9 9 9 8 7 8 8 8 7 6 8 9 9 9 9 9 9 9 8 8 8 7 8 8 8 7 7 7 7 7 7 7 6 6 6 6 6 7 7 8 8 9 6 5 4 5 7 7 8 9 9 8 9 9 9 9 10 10 11 11
10 9 9 9 9 9 8 8 8 8 8 8 7 7 8 8 9 10 10 9 8 6 6 5 5 7 7 7 7 6 6 6 6 6 6 6 5 6 6 6 6 9 8 8 7 7 5 4 4 4 5 6 8 8 8 9 9 9 10 10 11 12 13
10 10 9 9 8 9 9 8 8 8 8 8 8 8 8 9 8 9 10 9 9 6 6 5 9 8 7 6 6 7 6 6 6 6 5 5 5 5 5 6 6 6 7 7 5 5 5 6 5 5 5 4 4 5 7 8 8 9 10 10 10 12 11
10 10 9 9 9 8 8 8 9 9 8 8 7 7 8 8 7 8 8 9 8 7 6 7 10 9 8 8 6 6 6 6 5 5 4 4 4 4 5 5 5 4 5 6 5 5 5 4 5 6 5 5 5 4 2 3 6 8 9 10 11 11 12
11 10 9 9 8 8 8 8 8 9 8 7 7 7 6 7 7 7 8 9 8 7 6 8 10 10 9 9 7 6 6 6 5 5 4 4 4 4 4 5 5 4 4 4 4 5 6 6 5 5 5 4 2 6 7 5 3 4 7 8 9 11 12
12 11 9 9 9 9 9 8 7 6 6 6 6 5 5 6 6 7 7 8 7 6 6 8 9 10 10 10 10 7 6 5 5 4 4 3 2 3 4 4 4 4 4 4 4 6 6 6 8 8 8 8 8 8 6 6 9 7 7 6 8 10 11
11 10 10 10 9 9 9 7 6 4 5 7 7 4 5 6 5 6 6 7 7 6 4 8 9 10 11 11 10 7 6 5 4 4 3 2 2 3 3 3 3 4 4 4 5 6 6 6 7 7 8 8 7 7 6 8 9 8 7 6 7 8 10
12 11 11 10 9 9 8 6 7 5 5 4 6 8 4 5 6 6 6 7 7 6 4 5 7 9 10 11 10 6 6 5 4 3 2 1 1 2 3 3 3 3 3 4 6 6 5 6 7 9 9 9 8 6 5 5 5 5 6 6 7 8 8
13 13 12 11 9 9 10 9 8 7 7 5 5 6 7 5 5 6 6 6 7 6 5 5 6 8 10 11 9 7 6 5 4 4 2 2 1 2 3 3 3 3 3 4 6 7 7 7 6 8 9 9 8 7 8 8 8 9 10 10 10 10 11
12 12 11 11 10 9 8 7 8 8 9 9 8 7 7 6 5 5 6 6 6 7 5 5 7 7 10 12 9 7 6 5 5 4 3 2 1 3 5 4 3 2 3 4 6 6 7 6 6 7 8 9 9 9 10 10 9 9 10 11 10 10 11
14 14 13 11 10 11 10 9 8 8 8 8 8 7 7 7 6 5 5 5 5 6 6 5 6 7 8 8 6 6 6 5 5 4 4 4 2 3 4 3 4 4 4 4 4 5 7 7 6 6 7 7 7 8 8 10 9 10 11 11 10 10 9
11 10 10 10 10 10 9 9 9 8 8 8 8 7 7 7 7 6 5 5 5 4 6 5 6 7 7 7 7 5 6 5 5 5 4 3 3 3 3 3 4 4 3 3 5 5 5 5 6 6 6 6 7 8 9 9 8 8 9 9 9 9 9
14 12 11 11 10 9 9 9 10 9 9 7 8 7 7 7 7 6 5 5 5 4 4 6 6 7 7 8 7 6 6 6 5 5 5 3 2 2 1 1 2 5 5 5 5 5 4 4 5 4 4 5 6 8 10 8 8 9 8 8 8 8 9
12 11 10 10 9 9 8 8 8 9 8 9 9 9 8 7 7 6 5 5 5 5 4 3 6 6 8 8 8 6 5 5 3 5 4 3 2 2 1 0 1 4 4 4 5 4 5 4 4 3 4 5 9 9 7 7 7 7 7 7 8 8 9
11 9 10 11 11 10 9 9 9 9 9 10 10 10 9 8 8 7 6 6 5 5 5 4 4 6 7 8 7 5 1 4 1 3 3 3 2 2 1 1 1 3 4 5 4 4 4 6 7 2 4 7 7 9 10 4 6 6 7 7 8 8 9
12 10 12 11 11 11 11 10 9 9 10 10 9 9 9 8 8 8 8 7 6 5 5 5 3 4 7 6 7 6 6 4 4 2 2 2 2 1 1 1 2 4 5 4 3 4 5 5 4 6 7 7 9 9 5 6 6 7 7 8 9 9 9
Wind_Direction
137 127 123 109 110 128 92 82 76 63 59 58 63 64 65 69 75 76 76 79 77 74 72 69 68 66 69 60 55 57 55 48 46 67 71 38 59 71 49 64 66 60 53 54 32 32 48 34 79 94 80 52 56 50 48 46 40 35 29 22 22 15 15
122 122 127 125 126 125 102 87 81 76 65 56 58 63 64 68 71 75 75 78 80 80 80 80 73 69 64 61 56 53 56 55 50 50 64 55 55 64 84 76 76 77 73 65 59 48 42 24 64 39 29 120 108 54 41 46 42 33 29 22 20 14 13
129 127 126 126 123 112 103 97 85 82 79 75 67 68 72 72 73 75 78 79 80 82 81 82 80 70 66 66 62 66 65 68 56 56 62 64 62 56 54 62 72 79 79 65 47 42 59 41 36 22 24 23 41 64 42 36 42 37 29 21 20 15 12
145 140 134 126 119 111 105 98 93 88 86 88 87 74 72 77 77 77 81 83 84 85 83 78 74 77 74 74 73 69 62 63 66 68 69 65 66 62 58 57 59 54 52 52 38 37 38 32 25 26 26 26 27 31 34 28 22 30 25 23 16 16 9
148 146 143 138 133 118 113 112 109 102 93 91 88 86 76 81 87 88 88 87 84 82 78 78 79 81 82 79 71 68 70 69 73 73 72 68 66 69 64 65 65 63 59 57 54 43 42 38 28 26 22 360 60 43 26 10 24 21 18 17 13 10 5
137 146 144 134 133 123 123 124 126 117 117 108 95 92 89 95 100 100 95 92 89 83 87 87 85 85 81 78 77 77 77 74 70 71 71 66 65 72 78 72 72 69 64 60 51 49 46 40 30 28 28 23 13 23 23 20 15 39 23 17 6 9 4
141 145 148 136 129 119 128 129 129 126 118 112 109 100 105 102 95 95 93 91 93 95 94 90 87 81 83 86 86 85 83 81 81 78 78 77 74 75 79 79 71 69 65 57 54 50 44 40 35 25 1 12 4 21 15 12 25 11 12 14 4 357 359
137 141 134 126 122 120 121 119 117 115 115 116 109 108 110 105 102 101 100 98 99 99 96 93 89 89 89 92 91 87 85 84 82 82 81 80 79 77 74 76 76 69 64 57 56 54 51 47 42 25 18 11 13 25 13 17 10 35 359 352 1 359 355
129 125 117 108 98 104 118 121 121 115 116 113 107 112 110 112 108 103 99 100 101 100 96 95 96 96 96 96 94 93 90 87 90 88 91 87 82 79 77 76 76 69 62 60 58 56 52 48 45 38 30 29 14 3 359 7 9 9 12 359 351 360 353
136 136 131 120 112 108 110 112 116 118 114 111 114 113 114 111 109 108 107 105 102 101 99 98 101 100 97 95 98 98 95 94 92 89 89 88 84 79 75 71 74 72 65 63 61 56 51 49 48 45 39 35 19 15 2 350 5 347 352 0 351 346 349
136 128 131 130 128 124 117 114 120 123 121 120 119 120 119 113 109 109 109 108 106 104 105 104 101 100 101 98 99 97 99 102 99 95 89 87 82 80 77 75 72 73 66 65 63 55 51 47 45 44 42 38 30 24 8 348 338 354 336 342 348 340 341
124 124 110 107 113 123 126 127 123 120 122 125 123 123 121 116 115 113 114 113 112 110 107 104 106 106 108 107 104 104 106 108 104 98 91 87 83 82 81 79 77 76 73 69 64 60 53 43 38 40 35 32 33 23 2 352 334 346 344 330 334 334 335
127 129 133 135 131 126 127 128 128 129 130 125 120 121 120 120 122 122 121 120 118 114 110 110 113 115 112 109 112 111 112 113 106 99 95 88 88 86 85 81 74 72 68 67 62 53 47 41 31 30 27 19 28 18 360 347 333 321 338 329 325 325 332
134 134 128 117 109 117 125 129 127 128 123 118 122 123 123 125 125 125 125 124 121 118 118 118 119 118 115 115 114 116 118 112 107 102 99 94 90 89 85 83 78 70 64 60 54 48 40 30 25 27 21 16 17 18 2 347 336 324 324 336 327 331 328
116 117 116 121 122 128 127 127 133 132 118 114 122 124 125 124 128 128 125 123 121 122 124 124 124 122 121 121 120 118 116 111 107 103 100 95 91 86 84 81 76 70 60 57 48 45 35 28 24 24 24 14 14 9 4 342 337 328 325 329 333 331 332
128 127 126 128 127 125 124 125 131 125 118 118 120 125 127 129 129 128 125 125 127 128 129 126 126 127 125 126 124 120 116 112 108 107 103 99 94 91 85 77 70 63 58 54 49 43 33 28 21 23 16 13 6 360 355 347 334 333 329 327 331 333 337
117 117 114 116 119 125 127 124 124 117 118 126 125 122 129 130 129 128 127 130 132 133 132 131 130 130 129 128 126 119 116 111 107 104 101 98 92 85 79 74 64 56 52 51 43 39 34 26 22 16 10 7 359 355 346 341 345 330 328 325 335 335 335
122 123 124 125 123 125 126 125 125 124 125 126 127 129 128 131 132 132 135 138 138 137 137 136 132 130 130 128 124 120 117 112 107 103 97 93 86 81 75 69 61 52 46 46 41 36 28 23 18 15 8 3 356 350 344 345 341 335 328 328 328 333 334
125 127 127 127 129 129 129 129 129 128 131 131 132 135 136 137 138 139 140 141 140 138 139 138 135 132 128 125 121 119 119 116 110 105 100 92 83 77 72 67 59 52 46 43 37 30 21 15 10 10 8 359 355 347 345 343 341 336 332 332 332 336 341
130 130 132 131 131 131 131 133 136 133 136 136 137 139 139 134 136 140 141 142 141 140 140 140 137 135 131 125 123 121 121 120 115 107 99 93 87 77 71 64 57 52 47 41 36 27 12 8 2 4 5 354 352 349 346 345 342 341 341 337 339 341 339
130 129 128 130 130 129 131 135 131 130 133 135 138 140 140 138 136 139 142 143 141 142 143 143 142 139 134 131 129 127 125 124 120 114 105 95 86 78 68 60 55 53 51 46 37 30 18 6 357 2 5 355 352 350 349 346 345 346 345 345 346 346 346
126 131 134 132 132 132 131 126 128 131 133 131 130 136 137 139 140 139 141 142 143 145 148 148 150 148 140 139 136 133 128 126 125 119 112 101 89 79 70 61 52 50 54 58 55 48 39 8 355 359 0 354 352 351 351 348 349 348 347 347 348 349 346
134 135 135 135 132 130 128 130 132 133 132 131 130 133 136 142 143 144 145 146 148 150 151 150 147 148 149 146 142 135 134 129 123 118 113 105 91 78 68 65 59 46 44 42 39 22 18 26 19 2 351 353 355 353 352 349 351 349 347 348 353 348 352
136 137 135 127 127 130 130 132 134 132 129 130 133 138 143 144 145 147 149 151 155 156 153 152 152 158 155 156 149 144 138 131 125 119 113 101 89 80 70 61 57 47 41 25 22 8 354 9 359 351 344 333 342 356 355 351 348 348 346 348 348 352 350
136 132 132 131 131 130 131 134 136 136 135 135 137 140 143 145 143 144 147 154 158 160 162 143 163 163 168 173 177 151 142 136 131 116 107 97 85 72 60 57 56 55 41 21 358 359 354 355 343 337 332 328 334 355 24 356 341 343 347 343 346 349 348
137 138 138 134 130 133 136 135 136 137 137 135 134 136 135 135 143 147 152 157 161 163 164 153 173 171 174 178 183 172 146 142 132 116 104 89 74 59 51 46 48 46 42 8 3 3 352 353 347 325 304 315 1 10 340 337 280 321 330 334 341 339 351
148 144 137 133 134 136 136 133 133 128 122 121 117 112 119 134 144 154 158 160 160 165 169 159 179 178 177 178 181 194 150 154 132 119 105 84 69 62 43 37 37 39 31 22 20 357 349 351 351 350 356 4 0 358 352 354 354 341 340 335 336 335 332
138 133 135 136 136 131 124 119 120 126 133 133 119 119 143 152 151 156 157 158 159 162 154 148 180 184 182 178 181 203 161 160 150 130 118 81 62 52 45 47 45 38 28 29 38 356 346 350 345 348 352 359 356 350 355 0 358 347 339 333 332 324 326
143 142 141 138 130 129 125 132 134 140 144 150 145 143 148 156 154 156 158 158 157 157 144 157 178 186 182 175 174 195 174 173 166 150 133 123 89 60 52 45 44 37 26 34 33 2 357 331 344 352 350 351 351 348 360 358 321 309 308 323 322 324 319
147 148 147 142 137 138 139 147 150 162 158 153 149 156 148 155 155 152 154 161 157 150 154 163 178 183 178 166 179 193 180 184 171 166 156 149 130 74 67 50 42 30 24 42 20 355 1 320 353 354 352 345 344 348 355 349 336 328 331 318 309 289 295
144 147 150 148 153 149 144 151 162 168 163 163 168 161 147 144 149 153 158 165 164 155 155 148 171 178 177 174 194 181 185 185 176 176 165 171 131 98 75 54 18 32 28 33 6 355 358 326 359 357 351 347 348 352 354 351 341 339 331 321 312 316 310
153 157 156 158 154 150 156 161 166 169 167 164 159 153 153 152 150 151 160 159 153 156 150 152 167 169 182 180 199 187 187 181 179 180 176 161 154 114 118 109 64 34 23 7 350 19 9 351 359 1 347 343 346 352 353 334 337 332 333 332 332 334 330
152 152 155 151 150 152 150 154 164 167 163 162 155 156 158 154 150 153 155 160 162 167 156 158 163 170 174 181 209 208 185 183 183 175 185 167 148 135 133 136 145 98 6 5 15 19 23 1 352 357 351 351 349 346 339 326 320 321 314 315 320 320 324
156 161 160 156 153 148 155 160 160 161 160 157 154 152 153 149 148 147 155 157 159 164 166 161 154 171 172 176 186 213 182 191 178 175 170 166 150 147 142 116 81 75 9 358 1 5 6 9 332 336 359 353 336 319 307 305 315 307 309 315 317 328 336
158 154 153 151 150 150 150 153 158 159 160 155 152 151 151 152 154 152 153 162 162 161 153 157 156 178 178 171 177 225 206 182 183 174 174 154 153 145 152 95 136 56 358 341 346 347 339 336 315 307 13 323 297 297 296 294 307 316 325 329 339 341 346
155 153 154 155 152 153 154 163 166 161 156 154 152 152 156 156 157 158 162 169 164 157 148 156 179 169 177 174 169 188 217 149 230 254 178 161 146 135 142 176 125 72 331 321 328 331 318 322 274 13 330 302 296 295 277 309 320 327 335 342 341 344 349
162 159 157 156 155 157 163 168 168 165 161 157 156 158 162 162 163 165 170 168 167 162 161 163 157 179 164 170 160 157 150 140 197 226 176 156 156 131 178 160 51 15 314 301 301 308 309 295 309 321 308 306 305 285 309 325 342 338 334 346 348 349 348